Wind_Speed
16 16 15 15 16 16 16 15 15 16 17 18 17 16 17 17 18 19 21 22 24 26 28 30 32 33 34 33 31 30 30 29 29 31 32 32 33 35 37 38 39 40 40 41
16 16 16 16 16 16 15 15 15 15 16 16 16 16 16 15 16 17 19 20 21 23 25 26 27 28 28 27 25 23 22 20 19 19 20 22 24 26 28 30 31 32 33 34
16 16 16 16 16 15 15 15 15 14 14 14 15 15 15 15 15 16 17 18 19 20 22 22 23 24 24 23 21 18 16 13 11 11 12 14 16 18 21 22 24 25 26 28
17 17 16 15 15 15 14 14 13 13 13 13 13 13 13 13 14 15 15 15 16 17 19 19 20 21 21 20 18 16 12 9 5 4 6 8 10 13 16 18 19 21 23 24
17 17 16 15 14 14 14 13 12 11 11 11 11 12 12 12 13 14 14 14 14 15 16 16 17 18 18 17 15 14 11 9 6 3 2 4 6 8 11 14 15 17 19 22
17 16 15 14 13 13 13 12 11 10 10 10 10 10 11 11 12 13 13 13 13 13 13 14 14 15 15 15 14 12 10 9 7 4 2 0 3 6 8 10 13 15 16 19
17 16 15 14 13 13 12 11 10 10 10 10 10 10 10 11 12 12 12 11 11 11 12 12 12 12 13 13 12 11 10 9 7 5 3 1 1 3 6 8 10 12 15 18
17 16 15 14 13 13 12 11 11 10 10 10 10 11 11 12 12 11 11 11 10 10 10 10 10 11 11 11 11 10 10 9 8 7 5 3 4 5 7 8 10 13 16 19
16 16 15 15 14 14 13 12 12 11 11 11 11 12 12 12 11 11 10 10 10 10 10 10 10 10 10 10 10 10 9 9 9 8 7 7 7 8 9 11 13 15 18 20
16 16 16 16 15 14 14 13 13 12 12 12 12 12 12 11 11 11 10 10 10 9 9 9 9 9 9 9 9 10 10 9 9 9 9 9 10 11 13 14 16 17 20 22
17 17 17 17 16 15 15 14 14 14 13 13 12 12 12 11 11 11 11 10 10 9 8 8 8 8 8 9 9 10 11 11 11 11 12 12 13 14 15 16 18 20 22 25
19 19 18 18 17 16 16 15 15 14 14 13 13 12 12 12 11 11 11 10 10 9 9 9 8 8 9 10 11 11 12 13 13 14 14 14 15 17 18 19 21 23 26 28
19 20 20 19 18 18 17 16 16 15 14 14 13 13 12 12 12 11 11 10 9 9 9 9 9 10 11 11 12 13 14 14 15 15 16 17 18 19 21 22 24 26 29 31
21 21 20 20 20 19 19 18 17 16 15 15 14 14 13 13 12 12 11 10 10 10 10 11 11 11 12 13 14 15 16 16 17 17 18 19 21 22 23 25 27 29 31 34
22 21 21 21 21 21 20 20 19 18 17 16 15 15 14 14 13 13 12 12 12 12 12 12 13 13 14 15 15 16 17 18 19 19 20 22 23 24 26 28 29 32 34 37
22 21 21 22 22 22 21 21 21 20 18 17 17 16 16 15 15 14 14 14 14 14 14 14 15 15 16 17 17 18 19 20 21 22 23 24 26 27 29 30 32 34 37 39
21 21 21 21 21 21 21 21 21 21 20 19 18 18 17 17 16 16 16 16 16 16 16 16 17 17 17 18 19 20 21 22 23 24 25 27 28 29 31 32 34 37 39 41
20 21 21 21 21 21 22 22 22 22 21 21 20 20 19 18 18 18 18 17 17 17 18 18 18 18 19 20 21 22 23 24 25 26 27 28 29 31 33 34 37 39 40 42
19 20 20 21 22 22 22 22 22 22 22 22 21 21 20 20 20 19 19 19 19 19 19 19 20 20 21 21 22 23 24 25 26 27 28 30 31 33 34 36 38 40 42 43
19 19 19 20 21 21 21 22 22 22 22 22 21 21 21 20 20 20 20 20 20 20 20 21 21 21 22 23 24 25 25 26 27 28 30 31 32 34 36 38 39 41 42 44
18 18 19 19 19 20 20 21 21 21 21 21 21 20 20 20 20 20 20 20 20 21 21 22 22 22 23 24 25 26 26 27 28 30 31 32 34 35 37 39 40 41 43 46
17 17 18 18 19 19 20 20 20 20 21 21 21 21 20 20 20 21 21 21 21 22 22 23 23 24 24 25 26 26 27 29 30 31 32 33 35 36 38 39 40 42 44 47
17 18 18 19 19 19 20 20 21 21 21 22 22 22 22 22 22 22 23 23 23 23 23 24 24 25 25 26 27 27 29 30 31 32 33 34 36 37 39 40 41 43 45 47
16 17 18 19 20 21 21 22 22 22 23 23 23 24 24 24 24 25 25 25 25 25 25 25 25 26 27 27 28 29 30 31 32 33 34 35 36 38 39 40 42 44 46 47
18 18 19 19 20 21 22 23 23 24 24 25 25 26 26 26 26 26 26 26 27 27 27 27 28 28 28 28 29 30 31 31 32 33 34 35 37 38 39 40 43 45 45 45
21 21 22 23 23 24 25 25 25 26 26 27 28 28 29 29 29 29 29 29 28 29 29 29 29 29 29 29 29 30 31 32 33 34 35 36 37 39 39 41 43 44 44 44
25 25 26 26 27 27 28 29 29 30 30 31 31 31 31 32 32 31 31 31 31 31 31 31 31 31 30 30 30 31 32 33 33 34 35 36 38 39 40 41 42 42 43 43
Wind_Direction
216 218 221 226 232 237 243 245 248 252 258 262 268 273 277 281 285 289 293 297 301 305 308 312 314 314 314 312 307 301 293 283 276 267 260 255 252 250 249 248 249 249 251 253
221 225 229 232 237 242 244 247 249 252 256 259 266 272 277 283 290 295 299 303 307 311 316 320 322 324 326 324 318 312 304 294 282 269 260 253 247 245 246 247 247 247 248 250
227 230 232 235 239 243 247 249 250 250 253 258 265 270 276 284 294 301 306 310 313 318 324 327 330 333 337 337 333 330 322 309 290 270 258 251 245 242 243 243 242 245 246 246
229 232 236 237 239 244 247 248 247 249 252 257 263 272 279 288 298 305 309 317 321 325 331 335 338 341 344 346 349 349 349 346 330 292 258 240 233 234 235 237 239 241 243 246
229 233 236 238 239 241 241 242 243 247 252 257 264 277 286 292 302 308 313 318 324 330 335 340 344 349 353 358 1 6 13 16 14 355 273 233 229 234 236 238 236 240 245 247
230 233 234 235 236 235 234 238 242 248 254 261 272 286 292 296 302 312 318 320 323 330 338 344 350 355 360 3 6 9 16 21 23 24 17 278 218 224 231 234 240 250 256 260
231 231 231 232 231 229 230 236 241 248 256 266 278 289 295 299 303 309 319 324 326 328 334 342 350 359 6 9 12 15 17 15 15 11 6 349 271 255 255 256 260 264 271 275
230 228 227 229 229 228 232 236 241 250 259 270 281 291 296 300 305 308 315 321 325 329 335 339 345 353 1 4 7 11 15 16 17 16 10 345 319 303 294 289 283 281 282 286
230 229 228 230 231 232 233 239 245 252 261 271 281 289 295 300 303 305 311 318 322 322 326 331 334 340 346 352 358 2 3 4 1 356 350 340 327 315 307 303 299 296 295 296
229 227 228 231 234 236 238 242 248 253 261 270 279 285 290 295 301 304 307 313 317 320 322 325 329 335 340 344 350 352 353 352 349 345 338 332 326 320 315 311 309 306 304 304
229 230 230 233 236 238 239 243 248 253 261 268 275 282 286 288 292 299 304 307 309 311 317 325 329 333 340 343 344 345 345 343 339 336 332 327 323 319 316 313 311 309 309 309
232 233 234 236 238 239 242 245 248 252 259 265 270 276 282 285 289 292 297 300 300 303 308 316 322 328 332 335 337 337 336 335 334 332 329 325 321 318 316 314 313 313 313 313
235 236 236 237 240 241 243 246 249 252 255 260 266 274 278 281 287 290 291 292 294 299 304 309 315 320 324 328 330 331 330 329 328 326 324 321 319 317 316 315 314 314 315 315
238 239 239 239 240 242 244 247 249 251 255 259 264 270 275 280 282 284 285 284 289 295 300 303 307 312 316 319 322 324 324 323 322 320 319 318 317 316 316 315 315 315 316 317
239 241 242 241 242 244 245 247 249 251 254 259 262 267 272 276 278 279 279 281 284 289 293 297 300 305 309 311 313 316 318 318 318 317 317 317 316 316 316 316 317 317 318 319
241 242 243 242 243 245 246 247 249 251 255 258 261 265 268 271 273 274 276 279 282 285 289 292 295 300 304 306 308 311 314 315 315 315 315 316 316 316 317 318 318 319 320 321
241 242 243 243 243 245 246 247 249 252 255 258 261 265 266 266 268 270 273 278 280 283 286 289 293 297 300 303 306 308 311 313 313 314 315 315 316 317 318 318 319 320 321 322
241 243 244 244 244 246 248 248 250 252 255 258 260 263 264 264 266 268 272 275 278 282 284 287 291 294 297 301 304 307 309 311 312 313 315 316 316 317 318 319 320 321 322 323
243 245 247 248 248 248 250 251 252 253 255 257 259 260 262 264 266 268 270 272 276 280 282 286 289 292 296 299 303 306 308 310 311 313 315 316 316 318 319 320 320 321 323 324
246 248 250 249 249 250 251 252 252 253 255 256 258 260 261 263 265 267 269 272 275 278 282 284 288 291 295 299 302 305 307 309 311 313 315 316 317 318 319 320 321 322 323 324
249 250 251 251 251 251 250 250 251 253 254 256 257 259 261 263 264 266 268 272 275 278 281 284 287 291 295 298 301 304 306 308 310 312 314 315 317 318 320 321 322 323 324 325
254 253 254 254 253 252 251 251 253 254 255 255 256 259 261 262 264 266 269 272 275 278 281 285 288 291 294 297 300 303 306 308 310 312 313 315 317 318 320 321 322 323 324 325
258 257 257 257 256 256 255 255 255 257 258 259 259 259 261 263 266 269 271 272 275 278 282 285 287 290 293 296 299 302 306 308 310 311 313 315 316 318 320 321 322 323 324 326
263 262 261 261 260 259 258 258 259 260 261 262 262 262 262 264 266 269 271 272 275 278 281 284 286 289 293 296 299 301 304 307 309 311 313 314 316 318 320 321 322 324 325 326
270 270 269 267 266 264 263 263 263 264 264 264 264 264 265 266 267 268 270 272 274 277 279 282 285 288 291 294 297 300 303 306 308 310 312 315 317 318 320 321 322 324 326 327
271 272 271 271 270 270 269 268 268 267 267 267 266 267 267 267 267 268 270 271 273 275 277 280 283 286 289 292 295 298 301 303 306 309 312 314 316 318 319 321 322 324 326 327
272 272 273 273 273 272 272 271 270 270 270 269 268 267 268 269 269 269 270 271 272 274 276 279 281 284 287 289 292 295 299 302 305 308 311 313 315 318 319 321 323 324 326 327
Height
5637 5640 5643 5645 5648 5650 5652 5654 5656 5657 5657 5657 5657 5657 5657 5656 5655 5653 5651 5649 5646 5642 5637 5631 5625 5617 5610 5601 5594 5587 5582 5578 5576 5576 5578 5581 5585 5589 5594 5599 5604 5610 5614 5619
5635 5638 5640 5642 5644 5646 5648 5650 5651 5652 5652 5652 5653 5652 5652 5651 5650 5648 5645 5643 5639 5635 5630 5625 5618 5611 5603 5595 5588 5582 5577 5573 5571 5572 5573 5575 5579 5583 5588 5593 5598 5603 5607 5611
5633 5635 5637 5640 5642 5643 5644 5646 5647 5647 5649 5649 5649 5648 5648 5647 5645 5643 5640 5637 5634 5630 5625 5620 5614 5607 5600 5593 5586 5580 5575 5571 5570 5570 5571 5574 5577 5581 5585 5589 5593 5597 5601 5604
5630 5633 5635 5639 5638 5639 5640 5642 5643 5643 5644 5645 5645 5644 5643 5642 5640 5638 5636 5633 5630 5626 5622 5616 5611 5605 5599 5592 5587 5581 5576 5573 5572 5571 5572 5574 5577 5580 5583 5587 5591 5594 5597 5599
5627 5629 5631 5634 5634 5635 5637 5638 5639 5640 5640 5641 5641 5640 5639 5638 5636 5634 5632 5629 5626 5623 5619 5614 5609 5604 5599 5593 5588 5584 5580 5577 5576 5575 5575 5576 5578 5580 5583 5586 5589 5591 5593 5596
5624 5626 5628 5631 5631 5632 5634 5635 5636 5636 5637 5637 5637 5637 5636 5634 5632 5631 5628 5626 5623 5620 5617 5613 5609 5604 5600 5595 5591 5587 5584 5582 5580 5579 5579 5579 5580 5582 5584 5586 5588 5590 5591 5592
5620 5622 5624 5627 5627 5629 5632 5633 5633 5633 5633 5634 5633 5633 5632 5630 5629 5627 5625 5623 5620 5618 5615 5612 5608 5605 5601 5597 5594 5590 5588 5585 5583 5582 5582 5582 5583 5584 5585 5586 5587 5587 5588 5589
5616 5619 5623 5623 5624 5626 5628 5628 5629 5630 5630 5630 5630 5629 5628 5627 5626 5624 5622 5620 5618 5616 5613 5611 5608 5605 5602 5599 5596 5593 5590 5588 5587 5585 5585 5584 5584 5584 5585 5585 5585 5585 5585 5585
5614 5617 5618 5619 5621 5622 5624 5625 5626 5626 5627 5627 5627 5626 5625 5624 5623 5621 5620 5618 5616 5614 5611 5609 5607 5605 5602 5599 5597 5594 5592 5590 5589 5587 5586 5586 5585 5584 5584 5584 5583 5582 5581 5580
5610 5612 5614 5615 5617 5619 5620 5621 5622 5623 5623 5623 5623 5623 5622 5621 5619 5618 5617 5615 5613 5612 5610 5608 5606 5604 5602 5599 5597 5595 5593 5591 5589 5588 5587 5586 5585 5584 5582 5581 5580 5579 5577 5575
5606 5608 5610 5611 5613 5615 5616 5617 5618 5619 5619 5619 5619 5619 5618 5618 5616 5615 5614 5613 5611 5609 5608 5606 5604 5602 5601 5599 5597 5595 5593 5591 5589 5587 5586 5584 5583 5581 5580 5578 5576 5574 5572 5569
5602 5604 5606 5608 5609 5611 5612 5613 5614 5615 5615 5615 5616 5615 5615 5614 5613 5612 5611 5610 5608 5607 5606 5604 5603 5601 5599 5597 5595 5593 5591 5590 5588 5586 5584 5582 5580 5578 5576 5574 5571 5568 5565 5561
5597 5599 5601 5603 5605 5606 5608 5609 5610 5611 5611 5611 5612 5611 5611 5610 5610 5609 5608 5607 5606 5605 5603 5602 5600 5599 5597 5595 5594 5592 5590 5588 5585 5584 5582 5579 5577 5575 5572 5569 5566 5562 5558 5554
5592 5594 5596 5598 5600 5601 5603 5604 5605 5606 5607 5607 5607 5607 5607 5607 5606 5605 5604 5604 5603 5602 5601 5599 5598 5596 5595 5593 5591 5589 5587 5585 5583 5581 5578 5576 5573 5570 5567 5563 5560 5555 5551 5546
5587 5589 5591 5592 5594 5596 5597 5599 5600 5601 5602 5602 5603 5603 5603 5602 5602 5601 5601 5600 5599 5598 5597 5596 5595 5593 5592 5590 5588 5586 5584 5581 5579 5577 5574 5571 5568 5564 5561 5557 5553 5548 5543 5537
5581 5583 5585 5587 5588 5590 5591 5593 5595 5596 5597 5597 5598 5598 5598 5598 5597 5597 5597 5596 5595 5594 5593 5592 5591 5589 5588 5586 5584 5582 5580 5577 5575 5572 5569 5566 5562 5558 5554 5550 5545 5540 5535 5529
5575 5577 5579 5581 5582 5584 5586 5587 5589 5590 5591 5592 5592 5593 5593 5593 5592 5592 5592 5591 5590 5590 5589 5588 5587 5585 5583 5582 5580 5578 5575 5573 5570 5567 5563 5560 5556 5552 5547 5542 5537 5532 5526 5520
5570 5572 5573 5575 5576 5578 5580 5581 5582 5584 5585 5586 5586 5587 5587 5587 5587 5587 5587 5586 5585 5585 5584 5583 5582 5580 5579 5577 5575 5572 5570 5567 5564 5561 5557 5553 5549 5545 5540 5535 5530 5524 5518 5511
5564 5566 5567 5569 5570 5572 5573 5575 5576 5577 5578 5579 5580 5580 5581 5581 5581 5581 5581 5581 5580 5579 5579 5578 5576 5575 5573 5571 5569 5567 5564 5561 5558 5554 5551 5547 5542 5538 5533 5527 5522 5516 5510 5503
5559 5561 5562 5563 5564 5566 5567 5568 5570 5571 5572 5573 5574 5574 5574 5575 5575 5575 5575 5575 5574 5574 5573 5572 5570 5569 5567 5566 5563 5561 5558 5555 5552 5548 5544 5540 5535 5530 5525 5520 5514 5508 5501 5494
5554 5555 5556 5558 5559 5560 5561 5562 5564 5565 5566 5566 5567 5568 5568 5568 5569 5569 5569 5568 5568 5567 5566 5565 5564 5563 5561 5559 5557 5554 5551 5548 5545 5541 5537 5533 5528 5523 5518 5512 5506 5500 5493 5486
5549 5550 5551 5552 5553 5554 5555 5556 5557 5558 5559 5560 5561 5561 5562 5562 5562 5562 5562 5562 5561 5561 5560 5559 5558 5556 5555 5552 5550 5548 5545 5541 5538 5534 5530 5525 5520 5515 5510 5504 5498 5492 5485 5477
5544 5545 5546 5547 5548 5549 5549 5550 5551 5552 5553 5553 5554 5555 5555 5555 5555 5555 5555 5555 5554 5554 5553 5552 5551 5549 5547 5545 5543 5540 5537 5534 5531 5527 5522 5518 5513 5508 5502 5496 5490 5484 5477 5469
5539 5540 5540 5541 5542 5543 5543 5544 5545 5545 5546 5546 5547 5547 5548 5548 5548 5548 5548 5547 5547 5546 5545 5544 5543 5542 5540 5538 5535 5533 5530 5527 5523 5519 5515 5510 5505 5500 5494 5489 5482 5475 5468 5460
5534 5534 5535 5535 5536 5536 5537 5537 5538 5538 5539 5539 5539 5539 5540 5540 5540 5540 5540 5539 5539 5538 5537 5536 5535 5534 5532 5530 5528 5525 5522 5519 5515 5511 5507 5502 5498 5492 5487 5481 5474 5467 5460 5452
5528 5528 5528 5528 5528 5529 5529 5529 5530 5530 5530 5531 5531 5531 5531 5531 5531 5531 5531 5531 5530 5529 5529 5528 5527 5525 5524 5522 5520 5517 5514 5511 5507 5504 5499 5495 5490 5484 5479 5473 5466 5459 5452 5444
5520 5520 5520 5520 5520 5520 5520 5521 5521 5521 5521 5521 5521 5521 5521 5521 5521 5521 5521 5521 5521 5520 5520 5519 5518 5517 5515 5513 5511 5509 5506 5503 5499 5496 5491 5487 5482 5476 5471 5465 5458 5451 5444 5437